This demonstration page uses our WeatherBlox Daily Observations layout. Learn more.

Hourly Observations for July 3, 2019

Temp ( °F °C ) Dew Point ( °F °C ) Humidity (%) Winds ( mph kmh ) Pressure ( in mb ) Visibility ( mi km ) Precip ( " mm )
12:15 am 00:15 Clear 73 22.5 70 20.9 91 91 ESE 7 11 29.8 1009 10 16.09344 0 0
12:35 am 00:35 Clear 73 22.5 69 20.8 90 90 ESE 7 11 29.8 1009 10 16.09344 0 0
12:55 am 00:55 Clear 73 22.6 70 21.1 91 91 ESE 6 9 29.8 1009 10 16.09344 0 0
1:15 am 01:15 Clear 73 22.8 70 21.1 90 90 ESE 6 9 29.77 1008 10 16.09344 0 0
1:35 am 01:35 Clear 73 22.8 70 21.2 91 91 ESE 7 11 29.77 1008 10 16.09344 0 0
1:55 am 01:55 Clear 73 22.9 70 21.2 90 90 SE 5 7 29.74 1007 10 16.09344 0 0
2:15 am 02:15 Clear 73 22.5 70 21.2 92 92 SE 3 6 29.74 1007 10 16.09344 0 0
2:35 am 02:35 Clear 72 22.2 70 21.2 94 94 SE 3 6 29.74 1007 10 16.09344 0 0
2:55 am 02:55 Clear 72 22 70 21.1 95 95 SSE 3 6 29.74 1007 10 16.09344 0 0
3:15 am 03:15 Clear 72 22 70 21.2 95 95 Calm 29.74 1007 10 16.09344 0 0
3:35 am 03:35 Clear 72 22 70 21.1 95 95 SSE 5 7 29.74 1007 10 16.09344 0 0
3:55 am 03:55 Clear 72 22 70 21 94 94 Calm 29.74 1007 10 16.09344 0 0
4:15 am 04:15 Clear 71 21.7 70 21 96 96 SSE 3 6 29.74 1007 10 16.09344 0 0
4:35 am 04:35 Clear 71 21.8 69 20.8 94 94 Calm 29.74 1007 10 16.09344 0 0
4:55 am 04:55 Clear 71 21.5 69 20.5 94 94 SSE 3 6 29.77 1008 10 16.09344 0 0
5:15 am 05:15 Clear 70 21.3 69 20.6 96 96 Calm 29.77 1008 10 16.09344 0 0
5:35 am 05:35 Clear 70 20.9 68 20.2 96 96 Calm 29.77 1008 10 16.09344 0 0
5:55 am 05:55 Clear 69 20.7 69 20.4 98 98 Calm 29.77 1008 10 16.09344 0 0
6:15 am 06:15 Sunny 69 20.7 68 20 96 96 Calm 29.77 1008 10 16.09344 0 0
6:35 am 06:35 Sunny 68 20.2 67 19.7 97 97 Calm 29.77 1008 10 16.09344 0 0
6:55 am 06:55 Sunny 69 20.5 67 19.7 95 95 Calm 29.8 1009 10 16.09344 0 0
7:15 am 07:15 Sunny 69 20.7 68 19.8 95 95 Calm 29.8 1009 10 16.09344 0 0
7:35 am 07:35 Sunny 70 21 68 20.1 95 95 S 3 6 29.8 1009 10 16.09344 0 0
7:55 am 07:55 Sunny 72 22 68 19.8 87 87 S 5 7 29.74 1007 10 16.09344 0 0
8:15 am 08:15 Sunny 73 22.5 68 20.2 87 87 S 5 7 29.77 1008 10 16.09344 0 0
8:35 am 08:35 Sunny 74 23.2 69 20.3 84 84 SSW 3 6 29.77 1008 10 16.09344 0 0
8:55 am 08:55 Sunny 76 24.5 68 20.1 77 77 S 6 9 29.77 1008 10 16.09344 0 0
9:15 am 09:15 Sunny 77 24.9 68 19.9 74 74 S 6 9 29.77 1008 10 16.09344 0 0
9:35 am 09:35 Sunny 78 25.6 68 20.1 72 72 SSW 5 7 29.74 1007 10 16.09344 0 0
9:55 am 09:55 Sunny 80 26.5 67 19.7 66 66 S 8 13 29.74 1007 10 16.09344 0 0
10:15 am 10:15 Sunny 81 27 68 20 66 66 S 8 13 29.74 1007 10 16.09344 0 0
10:35 am 10:35 Sunny 82 27.5 67 19.5 62 62 SSW 6 9 29.74 1007 10 16.09344 0 0
10:55 am 10:55 Sunny 82 28 67 19.5 60 60 SSW 8 13 29.74 1007 10 16.09344 0 0
11:15 am 11:15 Sunny 83 28.5 67 19.4 58 58 SSW 7 11 29.74 1007 10 16.09344 0 0
11:35 am 11:35 Sunny 84 28.8 67 19.3 56 56 SSW 5 7 29.74 1007 10 16.09344 0 0
11:55 am 11:55 Sunny 84 29.1 67 19.4 56 56 S 3 6 29.74 1007 10 16.09344 0 0
12:15 pm 12:15 Sunny 85 29.6 66 19 53 53 SSE 5 7 29.71 1006 10 16.09344 0 0
12:35 pm 12:35 Sunny 86 30 65 18.6 50 50 S 8 13 29.71 1006 10 16.09344 0 0
12:55 pm 12:55 Sunny 87 30.5 66 18.7 49 49 S 8 13 29.71 1006 10 16.09344 0 0
1:15 pm 13:15 Sunny 87 30.4 66 18.9 50 50 SE 7 11 29.71 1006 10 16.09344 0 0
1:35 pm 13:35 Sunny 87 30.4 65 18.4 49 49 SE 7 11 29.68 1005 10 16.09344 0 0
1:55 pm 13:55 Partly Cloudy 87 30.5 66 19.1 51 51 SE 8 13 29.68 1005 10 16.09344 0 0
2:15 pm 14:15 Partly Cloudy 87 30.4 65 18.6 49 49 ESE 7 11 29.68 1005 10 16.09344 0 0
2:35 pm 14:35 Sunny 88 31.1 65 18.3 46 46 SE 9 15 29.68 1005 10 16.09344 0 0
2:55 pm 14:55 Sunny 88 31.2 65 18.3 46 46 SE 9 15 29.68 1005 10 16.09344 0 0
3:15 pm 15:15 Partly Cloudy 87 30.6 64 18 47 47 ESE 8 13 29.68 1005 10 16.09344 0 0
3:35 pm 15:35 Partly Cloudy 88 31.3 65 18.3 46 46 SSE 5 7 29.65 1004 10 16.09344 0 0
3:55 pm 15:55 Partly Cloudy 89 31.5 65 18.4 46 46 S 7 11 29.65 1004 10 16.09344 0 0
4:15 pm 16:15 Partly Cloudy 87 30.3 65 18.3 49 49 S 7 11 29.65 1004 10 16.09344 0 0
4:35 pm 16:35 Sunny 88 31.2 65 18.6 47 47 SSE 8 13 29.65 1004 10 16.09344 0 0
4:55 pm 16:55 Partly Cloudy 89 31.4 65 18.5 46 46 SSE 10 17 29.65 1004 10 16.09344 0 0
5:15 pm 17:15 Partly Cloudy 88 31.1 66 18.7 48 48 SE 13 20 29.65 1004 10 16.09344 0 0
5:35 pm 17:35 Partly Cloudy 88 31 66 18.8 48 48 SE 12 19 29.62 1003 10 16.09344 0 0
5:55 pm 17:55 Partly Cloudy 87 30.7 66 19 50 50 SSE 14 22 29.62 1003 10 16.09344 0 0
6:15 pm 18:15 Sunny 87 30.3 65 18.2 48 48 SSE 15 24 29.62 1003 10 16.09344 0 0
6:35 pm 18:35 Sunny 86 30.1 64 17.9 48 48 SSE 14 22 29.62 1003 10 16.09344 0 0
6:55 pm 18:55 Sunny 86 30 65 18.6 50 50 SSE 10 17 29.62 1003 10 16.09344 0 0
7:15 pm 19:15 Sunny 85 29.5 66 18.9 53 53 SSE 9 15 29.62 1003 10 16.09344 0 0
7:35 pm 19:35 Sunny 84 29.1 67 19.4 56 56 SSE 9 15 29.62 1003 10 16.09344 0 0
7:55 pm 19:55 Sunny 83 28.6 67 19.7 59 59 SSE 8 13 29.62 1003 10 16.09344 0 0
8:15 pm 20:15 Sunny 82 28 68 19.9 61 61 SE 8 13 29.65 1004 10 16.09344 0 0
8:35 pm 20:35 Sunny 81 27.4 68 19.9 64 64 SE 8 13 29.68 1005 10 16.09344 0 0
8:55 pm 20:55 Sunny 80 26.5 68 20 68 68 SE 8 13 29.68 1005 10 16.09344 0 0
9:15 pm 21:15 Clear 79 26 70 21 74 74 SSE 9 15 29.68 1005 10 16.09344 0 0
9:35 pm 21:35 Clear 77 25.2 70 21.2 79 79 SSE 8 13 29.68 1005 10 16.09344 0 0
9:55 pm 21:55 Clear 76 24.6 70 21.3 82 82 SE 9 15 29.71 1006 10 16.09344 0 0
10:15 pm 22:15 Clear 76 24.2 70 21 82 82 SSE 8 13 29.74 1007 10 16.09344 0 0
10:35 pm 22:35 Clear 75 23.7 69 20.7 83 83 SE 7 11 29.74 1007 10 16.09344 0 0
10:55 pm 22:55 Clear 74 23.1 69 20.6 86 86 SE 6 9 29.74 1007 10 16.09344 0 0
11:15 pm 23:15 Clear 73 22.7 70 20.9 90 90 ESE 7 11 29.77 1008 10 16.09344 0 0
11:35 pm 23:35 Clear 73 22.6 70 21 91 91 SE 7 11 29.77 1008 10 16.09344 0 0
11:55 pm 23:55 Clear 72 22.2 70 21 93 93 SE 7 11 29.77 1008 10 16.09344 0 0

Powered by AerisWeather